Weather History for Fort Bragg, NC

Change the Weather History Date:

Monday, June 9, 2014

  Actual Average Record
Temperature  
Mean Temperature 80 °F -  
Max Temperature 91 °F 83 °F 100 °F (2008)
Min Temperature 71 °F 66 °F 46 °F (1998)
Cooling Degree Days 16    
Growing Degree Days 30 (Base 50)    
Moisture  
Dew Point 67 °F    
Average Humidity 70    
Maximum Humidity 83    
Minimum Humidity 44    
Precipitation  
Precipitation 0.00 in - - ()
Sea Level Pressure  
Sea Level Pressure 29.90 in    
Wind  
Wind Speed 5 mph (SSE)    
Max Wind Speed 15 mph    
Max Gust Speed -    
Visibility 10 miles    
Events      
Averages and records for this station are not official NWS values.
T = Trace of Precipitation, MM = Missing Value Source: NWS Daily Summary

Daily Weather History Graph

Daily Weather History Graph

Search for Another Location

Airport:

Trip Planner

Search our weather history database for the weather conditions in past years. The results will help you decide how hot, cold, wet, or windy it might be!

Date:

Astronomy

Jun. 09, 2014 Rise Set
Actual Time 6:01 AM EDT 8:29 PM EDT
Civil Twilight 5:31 AM EDT 8:58 PM EDT
Nautical Twilight 4:54 AM EDT 9:35 PM EDT
Astronomical Twilight 4:14 AM EDT 10:15 PM EDT
Moon 4:55 PM EDT (6/9) 3:18 AM EDT (6/9)
Length of Visible Light 15h 27m
Length of Day
14h 28m
Waxing Gibbous, 85% of the Moon is Illuminated
Jun 9
Waxing Gibbous
Jun 13
Full
Jun 19
Last Quarter
Jun 27
New
Jul 5
First Quarter

Hourly Weather History & Observations

Time (EDT) Temp. Heat Index Dew Point Humidity Pressure Visibility Wind Dir Wind Speed Gust Speed Precip Events Conditions
12:02 AM 75.2 °F - 64.4 °F 69% 29.93 in 10.0 mi SSE 5.8 mph - N/A   Overcast
12:32 AM 73.4 °F - 64.4 °F 73% 29.93 in 10.0 mi South 4.6 mph - N/A   Scattered Clouds
12:58 AM 73.4 °F - 64.0 °F 72% 29.92 in 10.0 mi SSE 6.9 mph - N/A   Scattered Clouds
1:38 AM 71.6 °F - 64.4 °F 78% 29.91 in 10.0 mi SE 4.6 mph - N/A   Mostly Cloudy
1:58 AM 72.3 °F - 64.2 °F 76% 29.90 in 10.0 mi SSE 5.8 mph - N/A   Overcast
2:58 AM 71.4 °F - 64.4 °F 78% 29.89 in 10.0 mi SE 3.5 mph - N/A   Mostly Cloudy
3:32 AM 71.6 °F - 64.4 °F 78% 29.89 in 10.0 mi SE 4.6 mph - N/A   Mostly Cloudy
3:56 AM 71.6 °F - 64.4 °F 78% 29.88 in 10.0 mi SE 4.6 mph - N/A   Mostly Cloudy
3:58 AM 71.1 °F - 64.8 °F 80% 29.88 in 10.0 mi SE 4.6 mph - N/A   Mostly Cloudy
4:04 AM 71.6 °F - 64.4 °F 78% 29.88 in 10.0 mi SE 4.6 mph - N/A   Mostly Cloudy
4:10 AM 71.6 °F - 64.4 °F 78% 29.88 in 10.0 mi SE 3.5 mph - N/A   Mostly Cloudy
4:40 AM 71.6 °F - 64.4 °F 78% 29.88 in 10.0 mi SE 4.6 mph - N/A   Mostly Cloudy
4:58 AM 71.1 °F - 64.9 °F 81% 29.88 in 10.0 mi South 2.3 mph - N/A   Mostly Cloudy
5:58 AM 71.4 °F - 65.5 °F 81% 29.88 in 10.0 mi SSE 3.5 mph - N/A   Overcast
6:58 AM 71.8 °F - 66.2 °F 83% 29.88 in 10.0 mi ESE 2.3 mph - N/A   Mostly Cloudy
7:20 AM 71.6 °F - 66.2 °F 83% 29.89 in 10.0 mi SSE 2.3 mph - N/A   Mostly Cloudy
7:34 AM 73.4 °F - 66.2 °F 78% 29.90 in 10.0 mi ESE 2.3 mph - N/A   Mostly Cloudy
7:58 AM 74.1 °F - 67.6 °F 80% 29.91 in 10.0 mi South 4.6 mph - N/A   Overcast
8:58 AM 74.5 °F - 69.1 °F 83% 29.93 in 10.0 mi South 3.5 mph - N/A   Mostly Cloudy
9:58 AM 76.8 °F - 69.8 °F 79% 29.93 in 10.0 mi South 3.5 mph - N/A   Overcast
10:58 AM 79.2 °F - 69.4 °F 72% 29.93 in 10.0 mi Variable 2.3 mph - N/A   Mostly Cloudy
11:34 AM 82.4 °F 86.3 °F 69.8 °F 66% 29.92 in 10.0 mi Variable 1.2 mph - N/A   Scattered Clouds
11:44 AM 80.6 °F 83.9 °F 69.8 °F 70% 29.91 in 10.0 mi Variable 2.3 mph - N/A   Mostly Cloudy
11:50 AM 82.4 °F 86.3 °F 69.8 °F 66% 29.91 in 10.0 mi Calm Calm - N/A   Scattered Clouds
11:58 AM 82.6 °F 86.4 °F 69.6 °F 65% 29.91 in 10.0 mi Variable 1.2 mph - N/A   Scattered Clouds
12:58 PM 85.1 °F 89.8 °F 70.2 °F 61% 29.91 in 10.0 mi SW 6.9 mph - N/A   Mostly Cloudy
1:58 PM 88.0 °F 92.1 °F 69.1 °F 53% 29.89 in 10.0 mi Variable 6.9 mph - N/A   Partly Cloudy
3:58 PM 90.9 °F 93.5 °F 66.4 °F 44% 29.86 in 10.0 mi Variable 2.3 mph - N/A   Clear
4:58 PM 90.7 °F 93.6 °F 66.4 °F 45% 29.86 in 10.0 mi WSW 6.9 mph - N/A   Clear
5:58 PM 89.8 °F 92.9 °F 66.9 °F 47% 29.86 in 10.0 mi SW 9.2 mph - N/A   Clear
6:58 PM 88.0 °F 90.3 °F 65.8 °F 48% 29.86 in 10.0 mi SSW 4.6 mph - N/A   Clear
7:58 PM 86.7 °F 89.6 °F 67.1 °F 52% 29.86 in 10.0 mi SSW 3.5 mph - N/A   Clear
8:58 PM 83.3 °F 86.4 °F 68.2 °F 60% 29.88 in 10.0 mi SE 2.3 mph - 0.00 in   Clear
9:58 PM 81.1 °F 83.9 °F 67.8 °F 64% 29.91 in 10.0 mi Calm Calm - N/A   Partly Cloudy
10:58 PM 80.8 °F 85.4 °F 73.0 °F 77% 29.89 in 10.0 mi SSE 5.8 mph - N/A   Clear
11:42 PM 80.6 °F 83.2 °F 68.0 °F 65% 29.91 in 10.0 mi NW 15.0 mph - N/A   Mostly Cloudy
11:56 PM 77.0 °F - 66.2 °F 69% 29.92 in 10.0 mi North 8.1 mph - N/A   Scattered Clouds
11:58 PM 77.7 °F - 67.1 °F 70% 29.91 in 10.0 mi North 9.2 mph - N/A   Scattered Clouds